Location: *
(32.8667°N, 13.1833°E)
Time: 21:46:26
(UTC+00:00)

USA 215 - Pass Details

Date: 18 July 2019
Orbit: 1102 x 1106 km, 123.0° (Epoch: 24 August)

Event Time Altitude Azimuth Distance (km) Brightness Sun altitude
Rises 18:27:10 0° 39° (NE) 3,921 6.0 -3.1°
Reaches altitude 10° 18:29:40 10° 37° (NE) 2,962 5.4 -3.5°
Maximum altitude 18:36:09 70° 316° (NW) 1,168 3.7 -4.7°
Drops below altitude 10° 18:42:38 10° 234° (SW) 2,954 5.9 -5.9°
Sets 18:45:07 0° 232° (SW) 3,910 6.5 -6.4°
